Home   Weather   Manado   Past weeks

Flag for Indonesia Past Weather in Manado, North Sulawesi, Indonesia — Yesterday and Last 2 Weeks

Now
73 °F

Passing clouds.


Feels Like: 72 °F
Forecast: 78 / 92 °F
Wind: 2 mph from North

Location: Menado / Dr. Sam Ratulangi

Current Time: Sep 1, 2016 at 5:47:53 AM

Latest Report: Sep 1, 2016 at 5:30 AM


Visibility: 6 mi

Pressure: 29.83 "Hg

Humidity: 89%

Dew Point: 70 °F

Location of ManadoLocation

Past Weather in Manado — Graph

°F

Manado Temperature Yesterday

Maximum temperature yesterday: 95 °F (at 11:00 AM)
Minimum temperature yesterday: 73 °F (at 4:00 AM)
Average temperature yesterday: 84 °F

High & Low Weather Summary for the Past Weeks

 TemperatureHumidityPressure
High99 °F (Aug 22, 1:30 PM)100% (Aug 26, 6:00 AM)29.92 "Hg (Aug 26, 6:00 AM)
Low72 °F (Aug 24, 5:30 AM)41% (Aug 25, 1:00 PM)29.65 "Hg (Aug 22, 3:00 PM)
Average84 °F68%29.80 "Hg
* Reported Aug 17 4:30 AM — Sep 1 4:30 AM, Manado, Weather by CustomWeather, © 2016

Note: Actual official high and low records may vary slightly from our data, if they occured in-between our weather recording intervals... More about our weather records

Advertising

Manado Weather History for the Previous 24 Hours

Scroll right to see more
 ConditionsComfort  
Time TempWeatherWind HumidityBarometerVisibility
4:30 AM
Thu, Sep 1
73 °FPassing clouds.1 mph89%29.83 "Hg6 mi
4:00 AM73 °FPassing clouds.No wind94%29.83 "Hg6 mi
3:00 AM73 °FPassing clouds.2 mph94%29.83 "Hg6 mi
2:30 AM75 °FPassing clouds.1 mph89%29.83 "Hg6 mi
2:00 AM75 °FPassing clouds.2 mph89%29.83 "Hg6 mi
1:30 AM75 °FPassing clouds.2 mph89%29.86 "Hg6 mi
1:00 AM73 °FPassing clouds.2 mph94%29.86 "Hg6 mi
12:30 AM75 °FPassing clouds.2 mph89%29.86 "Hg6 mi
12:00 AM75 °FPassing clouds.2 mph94%29.86 "Hg6 mi
11:30 PM
Wed, Aug 31
75 °FPassing clouds.2 mph94%29.89 "Hg6 mi
11:00 PM77 °FPassing clouds.1 mph89%29.89 "Hg6 mi
10:30 PM77 °FPassing clouds.3 mph89%29.89 "Hg6 mi
10:00 PM77 °FPassing clouds.3 mph89%29.89 "Hg6 mi
9:30 PM79 °FPassing clouds.2 mph79%29.89 "Hg6 mi
9:00 PM79 °FPassing clouds.2 mph79%29.89 "Hg6 mi
8:30 PM82 °FPassing clouds.2 mph66%29.89 "Hg6 mi
7:30 PM84 °FPassing clouds.6 mph62%29.86 "HgN/A
7:00 PM84 °FPassing clouds.6 mph62%29.86 "HgN/A
6:30 PM86 °FPassing clouds.6 mph59%29.83 "HgN/A
6:00 PM86 °FPassing clouds.12 mph55%29.83 "HgN/A
5:30 PM88 °FPassing clouds.12 mph52%29.80 "HgN/A
4:30 PM90 °FScattered clouds.13 mph49%29.80 "HgN/A
4:00 PM91 °FScattered clouds.10 mph46%29.77 "HgN/A
3:30 PM91 °FScattered clouds.9 mph49%29.77 "HgN/A
3:00 PM91 °FScattered clouds.5 mph46%29.80 "HgN/A
2:30 PM90 °FScattered clouds.7 mph59%29.80 "HgN/A
2:00 PM91 °FScattered clouds.5 mph56%29.80 "HgN/A
1:30 PM91 °FScattered clouds.10 mph52%29.83 "HgN/A
1:00 PM93 °FScattered clouds.10 mph56%29.83 "HgN/A
12:30 PM91 °FScattered clouds.9 mph59%29.86 "HgN/A
12:00 PM90 °FScattered clouds.9 mph59%29.86 "HgN/A
11:30 AM90 °FScattered clouds.9 mph59%29.86 "HgN/A
11:00 AM95 °FScattered clouds.3 mph44%29.89 "HgN/A
10:30 AM91 °FPassing clouds.3 mph49%29.89 "HgN/A
10:00 AM93 °FPassing clouds.5 mph47%29.89 "HgN/A
9:30 AM91 °FPassing clouds.5 mph52%29.89 "HgN/A
9:00 AM91 °FPassing clouds.5 mph52%29.89 "HgN/A
8:30 AM90 °FPassing clouds.3 mph55%29.89 "HgN/A
8:00 AM86 °FPassing clouds.3 mph66%29.89 "HgN/A
7:30 AM84 °FPassing clouds.3 mph66%29.89 "HgN/A
7:00 AM79 °FPassing clouds.2 mph79%29.86 "HgN/A
6:30 AM75 °FPassing clouds.2 mph89%29.89 "HgN/A
6:00 AM75 °FPassing clouds.3 mph89%29.86 "HgN/A
5:30 AM73 °FPassing clouds.2 mph94%29.86 "HgN/A
5:00 AM73 °FPassing clouds.2 mph94%29.86 "HgN/A
Weather by CustomWeather, © 2016

See weather overviewHow to use our weather pages